[[{"header":{"parameterUnit":"m.s-1","parameterCategory":1,"la1":30.2991,"la2":30.254,"lo1":-89.0895,"lo2":-89.0444,"dy":0.0017,"dx":0.0017,"nx":28,"ny":28,"refTime":"2025-12-16T09:00:00:Z","depth":0,"parameterNumber":2,"parameterNumberName":"U-component_of_WINDS"},"data":[0,0,0,0,0,0,0,0,0,0,0,0,0,0,0,0,0,0,0,0,0,0,0,0,0,0,0,0,0,0,0,0,0,0,0,0,0,0,0,0,0,0,0,0,0,0,0,0,0,0,0,0,0,0,0,0,0,0,-0.918,-0.9181,0,-0.9247,-0.9247,-0.9248,-0.9196,-0.9194,-0.9192,-0.919,-0.926,-0.9264,-0.9268,0,0,0,0,0,0,0,0,0,0,0,0,0,-0.9011,-0.9015,-0.918,-0.9181,-0.9182,-0.9246,-0.9247,-0.9248,-0.9197,-0.9194,-0.9191,-0.9189,-0.9259,-0.9264,-0.9268,0,0,0,0,0,0,0,0,0,0,0,0,0,-0.9082,-0.9016,-0.918,-0.9164,-0.9163,-0.9246,-0.9247,-0.9248,-0.9197,-0.9194,-0.9191,-0.9188,-0.9257,-0.9263,-0.9269,-0.9372,0,0,-0.9287,-0.929,0,0,0,0,0,0,0,0,-0.9078,-0.9088,-0.9166,-0.9165,-0.9164,-0.921,-0.9213,-0.929,-0.9198,-0.9184,-0.919,-0.9186,-0.9246,-0.9253,-0.9273,-0.9376,-0.9379,-0.9288,-0.9291,-0.9294,-0.9295,0,0,0,0,0,0,0,-0.9073,-0.9085,-0.9207,-0.9167,-0.9166,-0.9154,-0.916,-0.9228,-0.9233,-0.9185,-0.9182,-0.919,-0.9245,-0.9267,-0.9274,-0.938,-0.9287,-0.9293,-0.9296,-0.9299,-0.9571,-0.9574,0,0,0,0,0,0,-0.907,-0.9081,-0.9204,-0.9209,-0.9112,-0.916,-0.9167,-0.9199,-0.9232,-0.9234,-0.9193,-0.9188,-0.9259,-0.9267,-0.9276,-0.94,-0.9294,-0.9299,-0.9303,-0.9567,-0.9572,-0.9576,0,0,0,0,0,0,-0.9066,-0.9081,-0.9202,-0.9144,-0.9158,-0.9166,-0.9202,-0.9202,-0.9223,-0.9238,-0.9239,-0.9214,-0.9256,-0.9268,-0.9349,-0.9402,-0.9302,-0.9307,-0.9563,-0.9569,-0.9574,-0.9648,0,0,0,0,0,0,-0.9062,-0.908,-0.9119,-0.9145,-0.9162,-0.9273,-0.9206,-0.9205,-0.9233,-0.9227,-0.9258,-0.926,-0.9255,-0.934,-0.9355,-0.9408,-0.9312,-0.9558,-0.9566,-0.9572,-0.9641,-0.9656,-0.9668,0,0,0,0,0,-0.9056,-0.9138,-0.9121,-0.9137,-0.9211,-0.9276,-0.9285,-0.9277,-0.9238,-0.9278,-0.9287,-0.9259,-0.9393,-0.9349,-0.9365,-0.9421,-0.9555,-0.9563,-0.9572,-0.9635,-0.9653,-0.9668,0,0,0,0,0,0,-0.9119,-0.9141,-0.9123,-0.9216,-0.9244,-0.9267,-0.9317,-0.9296,-0.9336,-0.9329,-0.9316,-0.9324,-0.9409,-0.9423,-0.9373,-0.9523,-0.9468,-0.948,-0.9511,-0.9528,-0.9541,-0.9537,-0.9317,0,0,0,0,0,-0.9144,-0.9194,-0.9211,-0.9292,-0.9307,-0.9309,-0.9338,-0.9328,-0.9357,-0.9369,-0.9385,-0.9415,-0.9464,-0.9496,-0.9542,-0.9642,-0.9649,-0.9689,-0.9702,-0.9713,-0.9724,-0.9779,-0.9797,-0.9603,-0.9603,-0.9603,0,0,-0.9196,-0.9214,-0.9247,-0.9305,-0.9326,-0.9379,-0.932,-0.9379,-0.9419,-0.9379,-0.9456,-0.9468,-0.9501,-0.9592,-0.9633,-0.9606,-0.9779,-0.9724,-0.9732,-0.9737,-0.9789,-0.9807,-0.9824,-0.9609,-0.9608,-0.9607,0,0,-0.9317,-0.9336,-0.9405,-0.9427,-0.9459,-0.946,-0.9477,-0.9503,-0.9509,-0.9586,-0.9557,-0.9604,-0.9689,-0.9713,-0.9737,-0.9867,-0.9844,-0.9882,-0.9954,-1.0007,-1.0022,-1.0036,-1.0083,-1.01,-0.9893,-0.9893,-0.9893,0,-0.9378,-0.9457,-0.9444,-0.9505,-0.9532,-0.9496,-0.9567,-0.9589,-0.9635,-0.9655,-0.9623,-0.9728,-0.9748,-0.9844,-0.9876,-0.9896,-0.9915,-0.988,-1.0021,-1.0034,-1.0047,-1.0092,-1.011,-0.9898,-0.9897,-0.9897,-0.9896,0,-0.953,-0.9585,-0.9638,-0.9682,-0.9714,-0.978,-0.9777,-0.9812,-0.9799,-0.9804,-0.9883,-0.9905,-0.9955,-0.9976,-0.9965,-1.0072,-1.0054,-1.0022,-0.9967,-1.007,-1.0112,-1.013,-0.9904,-0.9903,-0.9901,-0.99,0,0,-0.9696,-0.9731,-0.9751,-0.977,-0.9802,-0.9845,-0.9909,-0.9957,-0.9987,-1.0019,-1.0074,-1.0145,-1.0115,-1.0142,-1.0133,-1.018,-1.0283,-1.0142,-1.0143,-1.0169,-1.0403,-1.0428,-1.0448,-1.0266,-1.027,-1.0272,-1.04,0,-0.982,-0.9931,-0.9921,-1.0027,-1.0078,-1.0044,-1.01,-1.0126,-1.0132,-1.0177,-1.0183,-1.0235,-1.0191,-1.0207,-1.0252,-1.0261,-1.033,-1.0251,-1.0318,-1.0321,-1.0312,-1.047,-1.0497,-1.0617,-1.0417,-1.042,-1.0422,0,-0.9981,-1.0018,-1.0128,-1.0153,-1.0174,-1.0224,-1.0267,-1.031,-1.0339,-1.034,-1.0369,-1.0352,-1.0417,-1.0359,-1.0449,-1.0396,-1.0422,-1.0431,-1.0435,-1.0443,-1.0379,-1.0483,-1.0654,-1.0673,-1.0447,-1.0445,-1.0443,0,-1.0092,-1.0169,-1.0245,-1.0263,-1.0293,-1.0329,-1.0344,-1.0369,-1.0399,-1.0436,-1.0455,-1.05,-1.0525,-1.056,-1.0556,-1.0514,-1.0648,-1.059,-1.0652,-1.0652,-1.0683,-1.0681,-1.0863,-1.0697,-1.0697,-1.0697,-1.0696,0,-1.0233,-1.0302,-1.0296,-1.0343,-1.042,-1.0407,-1.0484,-1.0494,-1.0516,-1.0565,-1.0539,-1.0586,-1.0576,-1.0623,-1.062,-1.0695,-1.0706,-1.071,-1.0708,-1.0713,-1.0713,-1.0731,-1.0724,-1.0702,-1.07,-1.07,-1.0699,0,-1.037,-1.0369,-1.045,-1.0471,-1.0478,-1.0534,-1.0552,-1.0597,-1.06,-1.0662,-1.0676,-1.0682,-1.0735,-1.0733,-1.0794,-1.0792,-1.0885,-1.0874,-1.0876,-1.0874,-1.0936,-1.0931,-1.1137,-1.1164,-1.098,-1.0982,-1.0984,0,-1.0461,-1.0514,-1.054,-1.0571,-1.0587,-1.0637,-1.0666,-1.0655,-1.0687,-1.0724,-1.0765,-1.0815,-1.0856,-1.0943,-1.0952,-1.0999,-1.0989,-1.1058,-1.0996,-1.0999,-1.0992,-1.0989,-1.0995,-1.1071,-1.1073,-1.1075,-1.1076,0,-1.0623,-1.0619,-1.0662,-1.0706,-1.0741,-1.0775,-1.0805,-1.0832,-1.0825,-1.0862,-1.0916,-1.0947,-1.1009,-1.106,-1.1104,-1.112,-1.1098,-1.1095,-1.1112,-1.1118,-1.1118,-1.112,-1.091,-1.1091,-1.1089,-1.1088,-1.1087,-1.1087,-1.0741,-1.0786,-1.0812,-1.0861,-1.0882,-1.0911,-1.0955,-1.0962,-1.1007,-1.1056,-1.1047,-1.1108,-1.1135,-1.1192,-1.1212,-1.1259,-1.1235,-1.1259,-1.1266,-1.1272,-1.128,-1.1109,-1.1267,-1.1267,-1.1266,-1.1266,-1.1266,0,-1.0902,-1.0917,-1.0962,-1.1005,-1.1044,-1.1017,-1.105,-1.1084,-1.1138,-1.1165,-1.1205,-1.1267,-1.1316,-1.1329,-1.1377,-1.1412,-1.1403,-1.1425,-1.1423,-1.1427,-1.1298,-1.128,-1.1432,-1.1432,-1.1432,-1.1432,-1.1432,-1.1432,-1.0991,-1.1066,-1.1065,-1.1151,-1.1165,-1.1224,-1.1245,-1.1272,-1.1293,-1.1364,-1.1404,-1.1412,-1.1433,-1.1482,-1.1526,-1.1529,-1.1548,-1.1575,-1.1573,-1.1453,-1.1436,-1.1421,-1.1403,-1.1579,-1.1579,-1.1699,-1.17,-1.1701]},{"header":{"parameterUnit":"m.s-1","parameterCategory":1,"la1":30.2991,"la2":30.254,"lo1":-89.0895,"lo2":-89.0444,"dy":0.0017,"dx":0.0017,"nx":28,"ny":28,"refTime":"2025-12-16T09:00:00:Z","depth":0,"parameterNumber":3,"parameterNumberName":"V-component_of_WINDS"},"data":[0,0,0,0,0,0,0,0,0,0,0,0,0,0,0,0,0,0,0,0,0,0,0,0,0,0,0,0,0,0,0,0,0,0,0,0,0,0,0,0,0,0,0,0,0,0,0,0,0,0,0,0,0,0,0,0,0,0,-2.5127,-2.5128,0,-2.5201,-2.5202,-2.5203,-2.521,-2.521,-2.5209,-2.5208,-2.5282,-2.5285,-2.5287,0,0,0,0,0,0,0,0,0,0,0,0,0,-2.499,-2.4993,-2.5127,-2.5128,-2.5129,-2.5201,-2.5202,-2.5203,-2.521,-2.521,-2.5209,-2.5208,-2.5281,-2.5284,-2.5287,0,0,0,0,0,0,0,0,0,0,0,0,0,-2.5055,-2.4994,-2.5127,-2.5142,-2.5144,-2.5201,-2.5202,-2.5203,-2.5211,-2.5209,-2.5208,-2.5207,-2.528,-2.5284,-2.5288,-2.5335,0,0,-2.53,-2.5302,0,0,0,0,0,0,0,0,-2.5052,-2.5061,-2.5138,-2.5141,-2.5143,-2.5195,-2.5181,-2.5248,-2.5211,-2.5185,-2.5208,-2.5207,-2.5254,-2.526,-2.5276,-2.5339,-2.5342,-2.53,-2.5303,-2.5305,-2.5306,0,0,0,0,0,0,0,-2.5047,-2.5057,-2.5156,-2.514,-2.5142,-2.5144,-2.5152,-2.5194,-2.5225,-2.5187,-2.5188,-2.5197,-2.5255,-2.5272,-2.5278,-2.5343,-2.53,-2.5304,-2.5306,-2.5308,-2.5447,-2.5448,0,0,0,0,0,0,-2.504,-2.5054,-2.5154,-2.5159,-2.5094,-2.5147,-2.5156,-2.518,-2.5225,-2.523,-2.5198,-2.5197,-2.5266,-2.5273,-2.5281,-2.5338,-2.5305,-2.5308,-2.5311,-2.5445,-2.5447,-2.5448,0,0,0,0,0,0,-2.5037,-2.5049,-2.5151,-2.5106,-2.5119,-2.5151,-2.5177,-2.5182,-2.5199,-2.5232,-2.5238,-2.521,-2.5266,-2.5275,-2.5322,-2.5341,-2.531,-2.5314,-2.5444,-2.5446,-2.5448,-2.5454,0,0,0,0,0,0,-2.5033,-2.5048,-2.5067,-2.5107,-2.5122,-2.5191,-2.5178,-2.5184,-2.5206,-2.5206,-2.5245,-2.5251,-2.5265,-2.5315,-2.5325,-2.5346,-2.5317,-2.5442,-2.5445,-2.5447,-2.5452,-2.5456,-2.5459,0,0,0,0,0,-2.5029,-2.5066,-2.5068,-2.508,-2.5146,-2.5192,-2.5201,-2.5218,-2.5208,-2.5227,-2.5248,-2.5249,-2.5337,-2.532,-2.5332,-2.5353,-2.5441,-2.5444,-2.5447,-2.545,-2.5455,-2.5459,0,0,0,0,0,0,-2.5027,-2.5071,-2.5074,-2.5126,-2.5155,-2.5194,-2.5218,-2.5222,-2.5255,-2.5253,-2.5272,-2.5281,-2.5326,-2.5344,-2.5325,-2.5401,-2.5388,-2.5393,-2.5387,-2.5392,-2.5395,-2.5389,-2.532,0,0,0,0,0,-2.5033,-2.5067,-2.5104,-2.5146,-2.516,-2.5187,-2.5207,-2.5218,-2.5249,-2.5261,-2.5286,-2.5316,-2.535,-2.5372,-2.5405,-2.5455,-2.5463,-2.5476,-2.5479,-2.5482,-2.5486,-2.5512,-2.5517,-2.5458,-2.5458,-2.5458,0,0,-2.5045,-2.5073,-2.5094,-2.5146,-2.517,-2.5204,-2.5197,-2.5234,-2.5259,-2.5267,-2.5312,-2.5331,-2.5365,-2.5413,-2.5436,-2.543,-2.5504,-2.5485,-2.5487,-2.549,-2.5515,-2.5521,-2.5526,-2.546,-2.5459,-2.5459,0,0,-2.5084,-2.511,-2.5146,-2.5171,-2.5208,-2.5225,-2.5234,-2.5272,-2.5285,-2.533,-2.5336,-2.5366,-2.5425,-2.5449,-2.5469,-2.5517,-2.5519,-2.5527,-2.5544,-2.557,-2.5575,-2.5579,-2.5594,-2.56,-2.5531,-2.5531,-2.5531,0,-2.5094,-2.5147,-2.5165,-2.5201,-2.5223,-2.5232,-2.5269,-2.5292,-2.5338,-2.5352,-2.5346,-2.5419,-2.5443,-2.5496,-2.5508,-2.5524,-2.5534,-2.5522,-2.5573,-2.5577,-2.5581,-2.5596,-2.5602,-2.5532,-2.5532,-2.5532,-2.5532,0,-2.5156,-2.5193,-2.5218,-2.5262,-2.5287,-2.5324,-2.5347,-2.537,-2.5378,-2.5395,-2.5441,-2.547,-2.5509,-2.5523,-2.5531,-2.5577,-2.5572,-2.5569,-2.5556,-2.5587,-2.5602,-2.5608,-2.5533,-2.5533,-2.5532,-2.5532,0,0,-2.5196,-2.5249,-2.5258,-2.5278,-2.5319,-2.5347,-2.5384,-2.5422,-2.5441,-2.5472,-2.5502,-2.5552,-2.5549,-2.5572,-2.5583,-2.5605,-2.5639,-2.5599,-2.56,-2.5604,-2.569,-2.5691,-2.5697,-2.5642,-2.5643,-2.5644,-2.5686,0,-2.5238,-2.5304,-2.5321,-2.5377,-2.541,-2.5419,-2.545,-2.5479,-2.5496,-2.5526,-2.5545,-2.5579,-2.5574,-2.5587,-2.561,-2.563,-2.5656,-2.5628,-2.5669,-2.567,-2.5658,-2.5705,-2.5706,-2.5745,-2.5692,-2.5693,-2.5694,0,-2.5297,-2.5329,-2.5388,-2.5424,-2.5439,-2.5467,-2.5503,-2.5532,-2.5564,-2.5575,-2.56,-2.5608,-2.5646,-2.5632,-2.5683,-2.5663,-2.5681,-2.5694,-2.5696,-2.5699,-2.5683,-2.5708,-2.5758,-2.5763,-2.5703,-2.5703,-2.5702,0,-2.5318,-2.5376,-2.5419,-2.5436,-2.5479,-2.5498,-2.5517,-2.5548,-2.557,-2.5601,-2.5615,-2.5651,-2.567,-2.5696,-2.5714,-2.5703,-2.5763,-2.5751,-2.5772,-2.5772,-2.5783,-2.5782,-2.5835,-2.5797,-2.5797,-2.5797,-2.5797,0,-2.5363,-2.5398,-2.5429,-2.5455,-2.5494,-2.5513,-2.5552,-2.5571,-2.5598,-2.5627,-2.5637,-2.5664,-2.5687,-2.5716,-2.5731,-2.577,-2.5779,-2.5788,-2.5791,-2.5786,-2.5785,-2.5797,-2.5794,-2.5799,-2.5798,-2.5798,-2.5798,0,-2.5392,-2.5415,-2.5461,-2.5499,-2.5509,-2.5536,-2.5568,-2.5593,-2.561,-2.5647,-2.5657,-2.5684,-2.572,-2.574,-2.5785,-2.5795,-2.5838,-2.5841,-2.5827,-2.5828,-2.5847,-2.5845,-2.5909,-2.5918,-2.5875,-2.5876,-2.5876,0,-2.5419,-2.5446,-2.5487,-2.5507,-2.5526,-2.5559,-2.5581,-2.5601,-2.5623,-2.5661,-2.5682,-2.5718,-2.5748,-2.5804,-2.5827,-2.5861,-2.5864,-2.5884,-2.5869,-2.5863,-2.5863,-2.586,-2.5862,-2.5886,-2.5887,-2.5887,-2.5887,0,-2.5463,-2.5473,-2.5505,-2.554,-2.5566,-2.5595,-2.5624,-2.564,-2.5664,-2.5689,-2.5725,-2.5749,-2.5794,-2.583,-2.5866,-2.5884,-2.5889,-2.5892,-2.5898,-2.5893,-2.5884,-2.5888,-2.5833,-2.589,-2.589,-2.589,-2.589,-2.5889,-2.5491,-2.5515,-2.5547,-2.5582,-2.5606,-2.5632,-2.5657,-2.5678,-2.5709,-2.5748,-2.5758,-2.5796,-2.5826,-2.5875,-2.5894,-2.5924,-2.592,-2.593,-2.5932,-2.5934,-2.5934,-2.588,-2.5931,-2.5931,-2.5931,-2.5931,-2.5931,0,-2.5535,-2.5555,-2.5587,-2.5627,-2.5654,-2.5658,-2.5689,-2.5711,-2.5745,-2.5773,-2.5802,-2.5844,-2.5878,-2.5904,-2.5939,-2.5958,-2.5961,-2.5966,-2.5964,-2.5968,-2.5935,-2.5926,-2.5963,-2.5963,-2.5963,-2.5963,-2.5963,-2.5963,-2.556,-2.5601,-2.5614,-2.5666,-2.5687,-2.5724,-2.5742,-2.5766,-2.5788,-2.5834,-2.5863,-2.588,-2.5907,-2.5944,-2.5975,-2.5982,-2.5994,-2.5998,-2.6005,-2.5974,-2.597,-2.5967,-2.5958,-2.6001,-2.6001,-2.6035,-2.6035,-2.6035]}]]